Location: Unspecified
(54.1780°N, 0.0000°E)
Time: 05:05:17
(UTC+00:00)

Transit 2A - Pass Details

Date: 21 June 2019
Orbit: 597 x 962 km, 66.7° (Epoch: 21 August)

Event Time Altitude Azimuth Distance (km) Brightness Sun altitude
Rises 09:41:02 0° 316° (NW) 3,492 9.0 49.6°
Reaches altitude 10° 09:43:49 10° 308° (NW) 2,493 8.4 49.9°
Maximum altitude 09:48:54 34° 246° (WSW) 1,301 7.4 50.5°
Drops below altitude 10° 09:53:32 10° 183° (S) 2,256 8.9 51.0°
Sets 09:55:57 0° 173° (S) 3,115 9.6 51.3°
